Weather in Campulung

Romania     45˚16′48″N   25˚03′05″E
temp.,
°C
wind,
m/s
gust,
m/s
humid.,
%
clouds,
%
prec.,
mm/h
press.,
hPa
HPBL,
m
17 january, sun
sun1723:00−13˚nne33782 0.0 101959
02:00−13˚nne23791 0.0 101954
05:00−13˚nne23790 0.0 101843
08:00−13˚nne237938 0.0 101834
11:00−7˚sse016572 0.0 1019418
14:00−6˚wsw116271 0.0 1018884
17:00−9˚nnw118082 0.1 101822
20:00−12˚n238041 0.1 102035
18 january, mon
mon1823:00−12˚nne33760 0.0 102143
02:00−12˚n23750 0.0 102134
05:00−12˚n237626 0.0 102137
08:00−11˚n227559 0.0 102235
11:00−6˚nw016493 0.0 1022364
14:00−4˚sw126552 0.0 1021807
17:00−7˚ene118480 0.1 102223
20:00−11˚nne337977 0.1 102358
19 january, tue
tue1923:00−11˚nne33773 0.0 102455
02:00−11˚nne337743 0.0 102567
05:00−11˚nne237637 0.0 102446
08:00−10˚nne227668 0.0 102534
11:00−5˚s0165100 0.0 1025252
14:00−3˚sw126862 0.0 1024366
17:00−7˚w01850 0.0 102321
20:00−6˚nne228241 0.0 102427
20 january, wed
wed2023:00−5˚n2379100 0.0 102430
02:00−5˚n2279100 0.0 102321
05:00−5˚n1285100 0.1 102221
08:00−5˚n128969 0.1 102221
11:00w118118 0.0 1022179
14:00+2˚sw118554 0.0 1021229
17:00−1˚nnw11925 0.0 102121
20:00−1˚nne22853 0.0 102224
21 january, thu
thu2123:00−1˚n22810 0.0 102223
02:00−1˚nne23810 0.0 102224
05:00−1˚nne238135 0.0 102126
08:00−1˚nne228118 0.0 102122
11:00+3˚sw018212 0.0 102096
14:00+4˚sw12798 0.0 1019289
17:00nnw018749 0.0 101922
20:00−1˚nne128335 0.0 102022